TimeCEST,TemperatureF,Dew PointF,Humidity,Sea Level PressureIn,VisibilityMPH,Wind Direction,Wind SpeedMPH,Gust SpeedMPH,PrecipitationIn,Events,Conditions,WindDirDegrees,DateUTC
12:20 AM,75.2,57.2,53,29.98,-9999.0,Variable,2.3,-,N/A,,Clear,0,2013-08-21 22:20:00
12:50 AM,73.4,57.2,57,29.98,-9999.0,NNW,3.5,-,N/A,,Clear,330,2013-08-21 22:50:00
1:20 AM,75.2,55.4,50,29.98,-9999.0,North,4.6,-,N/A,,Clear,10,2013-08-21 23:20:00
1:50 AM,75.2,55.4,50,29.98,-9999.0,North,4.6,-,N/A,,Clear,10,2013-08-21 23:50:00
2:20 AM,73.4,55.4,53,29.95,-9999.0,NE,5.8,-,N/A,,Clear,40,2013-08-22 00:20:00
2:50 AM,73.4,55.4,53,29.95,-9999.0,NNE,5.8,-,N/A,,Clear,30,2013-08-22 00:50:00
3:20 AM,73.4,55.4,53,29.95,-9999.0,NNE,3.5,-,N/A,,Clear,20,2013-08-22 01:20:00
3:50 AM,71.6,57.2,60,29.95,-9999.0,NNW,4.6,-,N/A,,Clear,330,2013-08-22 01:50:00
4:20 AM,73.4,57.2,57,29.95,6.2,North,4.6,-,N/A,,Partly Cloudy,350,2013-08-22 02:20:00
4:50 AM,73.4,57.2,57,29.95,6.2,North,5.8,-,N/A,,Partly Cloudy,360,2013-08-22 02:50:00
5:20 AM,73.4,57.2,57,29.95,-9999.0,North,4.6,-,N/A,,Clear,350,2013-08-22 03:20:00
5:50 AM,73.4,57.2,57,29.95,-9999.0,NE,5.8,-,N/A,,Clear,40,2013-08-22 03:50:00
6:20 AM,73.4,59.0,61,29.95,-9999.0,North,4.6,-,N/A,,Clear,350,2013-08-22 04:20:00
6:50 AM,73.4,59.0,61,29.95,-9999.0,NNW,5.8,-,N/A,,Clear,340,2013-08-22 04:50:00
7:20 AM,73.4,59.0,61,29.95,-9999.0,North,5.8,-,N/A,,Clear,350,2013-08-22 05:20:00
7:50 AM,75.2,59.0,57,29.95,-9999.0,NNW,6.9,-,N/A,,Clear,340,2013-08-22 05:50:00
8:20 AM,77.0,59.0,54,29.95,-9999.0,North,6.9,-,N/A,,Clear,350,2013-08-22 06:20:00
8:50 AM,78.8,57.2,47,29.95,-9999.0,North,6.9,-,N/A,,Clear,360,2013-08-22 06:50:00
9:20 AM,80.6,59.0,48,29.95,-9999.0,NNE,6.9,-,N/A,,Clear,30,2013-08-22 07:20:00
9:50 AM,80.6,57.2,45,29.98,-9999.0,North,-9999.0,-,N/A,,Unknown,0,2013-08-22 07:50:00
10:20 AM,84.2,57.2,40,29.98,-9999.0,NE,5.8,-,N/A,,Clear,50,2013-08-22 08:20:00
10:50 AM,84.2,57.2,40,29.98,-9999.0,NE,5.8,-,N/A,,Clear,40,2013-08-22 08:50:00
11:20 AM,86.0,57.2,37,29.98,-9999.0,Variable,4.6,-,N/A,,Clear,0,2013-08-22 09:20:00
11:50 AM,87.8,55.4,33,29.95,-9999.0,Variable,3.5,-,N/A,,Clear,0,2013-08-22 09:50:00
12:20 PM,87.8,53.6,31,29.95,-9999.0,ESE,5.8,-,N/A,,Clear,120,2013-08-22 10:20:00
12:50 PM,91.4,55.4,29,29.95,-9999.0,Variable,3.5,-,N/A,,Clear,0,2013-08-22 10:50:00
1:20 PM,89.6,55.4,31,29.95,-9999.0,East,3.5,-,N/A,,Clear,80,2013-08-22 11:20:00
1:50 PM,89.6,55.4,31,29.95,6.2,SSW,6.9,-,N/A,,Partly Cloudy,210,2013-08-22 11:50:00
2:20 PM,89.6,59.0,36,29.95,6.2,South,9.2,-,N/A,,Partly Cloudy,190,2013-08-22 12:20:00
2:50 PM,89.6,60.8,38,29.92,6.2,South,9.2,-,N/A,,Partly Cloudy,170,2013-08-22 12:50:00
3:20 PM,89.6,60.8,38,29.92,6.2,SSW,8.1,-,N/A,,Partly Cloudy,200,2013-08-22 13:20:00
3:50 PM,89.6,60.8,38,29.92,-9999.0,WSW,8.1,-,N/A,,Clear,250,2013-08-22 13:50:00
4:20 PM,89.6,62.6,40,29.92,-9999.0,West,10.4,-,N/A,,Clear,270,2013-08-22 14:20:00
4:50 PM,87.8,60.8,40,29.92,-9999.0,West,10.4,-,N/A,,Clear,270,2013-08-22 14:50:00
5:20 PM,86.0,60.8,43,29.92,-9999.0,West,11.5,-,N/A,,Clear,270,2013-08-22 15:20:00
5:50 PM,84.2,62.6,48,29.92,-9999.0,West,10.4,-,N/A,,Clear,270,2013-08-22 15:50:00
6:50 PM,84.2,64.4,51,29.92,-9999.0,WNW,8.1,-,N/A,,Clear,300,2013-08-22 16:50:00
7:20 PM,82.4,64.4,54,29.95,-9999.0,West,5.8,-,N/A,,Clear,280,2013-08-22 17:20:00
7:50 PM,82.4,66.2,58,29.95,-9999.0,WNW,6.9,-,N/A,,Clear,290,2013-08-22 17:50:00
8:20 PM,80.6,66.2,61,29.95,6.2,NW,4.6,-,N/A,,Partly Cloudy,310,2013-08-22 18:20:00
8:50 PM,80.6,66.2,61,29.95,-9999.0,West,3.5,-,N/A,,Clear,280,2013-08-22 18:50:00
9:20 PM,80.6,66.2,61,29.98,-9999.0,NW,4.6,-,N/A,,Clear,320,2013-08-22 19:20:00
9:50 PM,78.8,68.0,69,29.98,-9999.0,NW,6.9,-,N/A,,Clear,320,2013-08-22 19:50:00
10:20 PM,78.8,69.8,74,29.98,-9999.0,NW,4.6,-,N/A,,Clear,310,2013-08-22 20:20:00
10:50 PM,78.8,69.8,74,29.98,-9999.0,NNW,3.5,-,N/A,,Clear,330,2013-08-22 20:50:00
11:20 PM,78.8,68.0,69,29.98,-9999.0,Variable,2.3,-,N/A,,Clear,0,2013-08-22 21:20:00
11:50 PM,77.0,68.0,74,29.98,-9999.0,Calm,Calm,-,N/A,,Clear,0,2013-08-22 21:50:00